When you browse on this site, cookies collect data to enhance your experience and personalize the content and advertising you see.
Visit our Privacy Policy to learn more. By continuing to use the site, you agree to this use of cookies and data.
  • In Spain
  • List of Countries
  • For 7 days
  • Water Temperature
  • Satellite Maps
  • Weather Map
  • Weather Widgets
  • user-avatar
    Login

    Hourly Weather Doba

    Today, 26 June, Wednesday

    Time Temperature Precipitation Wind Pressure Humidity
    00:00 +24°C° 7.1 mm 3 mps 726 mmHg 94%
    01:00 +23°C° 7.1 mm 4 mps 726 mmHg 95%
    02:00 +23°C° 0.4 mm 4 mps 726 mmHg 95%
    03:00 +24°C° 0.4 mm 3 mps 726 mmHg 94%
    04:00 +24°C° 0.4 mm 2 mps 726 mmHg 94%
    05:00 +24°C° 0.3 mm 3 mps 726 mmHg 93%
    06:00 +24°C° 0.3 mm 3 mps 726 mmHg 92%
    07:00 +23°C° 0.3 mm 4 mps 726 mmHg 91%
    08:00 +26°C° 0 mm 3 mps 726 mmHg 85%
    09:00 +27°C° 0 mm 2 mps 726 mmHg 79%
    10:00 +29°C° 0 mm 1 mps 727 mmHg 73%
    11:00 +30°C° 0 mm 1 mps 727 mmHg 69%
    12:00 +31°C° 0 mm 1 mps 726 mmHg 64%
    13:00 +32°C° 0 mm 1 mps 726 mmHg 60%
    14:00 +32°C° 0 mm 1 mps 725 mmHg 59%
    15:00 +32°C° 0 mm 1 mps 725 mmHg 58%
    16:00 +32°C° 0 mm 1 mps 724 mmHg 58%
    17:00 +31°C° 0.1 mm 1 mps 724 mmHg 64%
    18:00 +27°C° 0.1 mm 0 mps 724 mmHg 71%
    19:00 +26°C° 0.1 mm 0 mps 725 mmHg 77%
    20:00 +25°C° 0.6 mm 0 mps 725 mmHg 79%
    21:00 +25°C° 0.6 mm 0 mps 726 mmHg 82%
    22:00 +24°C° 0.6 mm 0 mps 726 mmHg 85%
    23:00 +24°C° 0.1 mm 0 mps 726 mmHg 86%

    Tomorrow, 27 June, Thursday

    Time Temperature Precipitation Wind Pressure Humidity
    00:00 +26°C° 0.1 mm 1 mps 725 mmHg 87%
    01:00 +26°C° 0.1 mm 1 mps 725 mmHg 87%
    02:00 +26°C° 0.7 mm 1 mps 725 mmHg 88%
    03:00 +26°C° 0.7 mm 1 mps 725 mmHg 89%
    04:00 +26°C° 0.7 mm 1 mps 725 mmHg 89%
    05:00 +26°C° 0.9 mm 1 mps 726 mmHg 88%
    06:00 +26°C° 0.9 mm 1 mps 726 mmHg 87%
    07:00 +24°C° 0.9 mm 0 mps 726 mmHg 86%
    08:00 +27°C° 0.9 mm 1 mps 726 mmHg 81%
    09:00 +29°C° 0.9 mm 1 mps 727 mmHg 76%
    10:00 +30°C° 0.9 mm 1 mps 727 mmHg 71%
    11:00 +30°C° 0.5 mm 1 mps 726 mmHg 69%
    12:00 +31°C° 0.5 mm 1 mps 726 mmHg 68%
    13:00 +31°C° 0.5 mm 1 mps 726 mmHg 66%
    14:00 +31°C° 0.9 mm 1 mps 725 mmHg 66%
    15:00 +31°C° 0.9 mm 1 mps 725 mmHg 66%
    16:00 +31°C° 0.9 mm 1 mps 724 mmHg 66%
    17:00 +30°C° 0.2 mm 1 mps 724 mmHg 71%
    18:00 +28°C° 0.2 mm 1 mps 725 mmHg 77%
    19:00 +27°C° 0.2 mm 1 mps 725 mmHg 83%
    20:00 +27°C° 0 mm 1 mps 725 mmHg 84%
    21:00 +26°C° 0 mm 1 mps 726 mmHg 85%
    22:00 +26°C° 0 mm 1 mps 726 mmHg 87%
    23:00 +26°C° 0 mm 1 mps 726 mmHg 88%

    Day after tomorrow, 28 June, Friday

    Time Temperature Precipitation Wind Pressure Humidity
    00:00 +26°C° 0 mm 1 mps 726 mmHg 89%
    01:00 +25°C° 0 mm 1 mps 725 mmHg 90%
    02:00 +25°C° 0 mm 1 mps 725 mmHg 91%
    03:00 +25°C° 0 mm 1 mps 725 mmHg 92%
    04:00 +25°C° 0 mm 1 mps 725 mmHg 93%
    05:00 +25°C° 0.5 mm 1 mps 726 mmHg 92%
    06:00 +25°C° 0.5 mm 1 mps 726 mmHg 91%
    07:00 +25°C° 0.5 mm 1 mps 727 mmHg 89%
    08:00 +27°C° 0 mm 1 mps 727 mmHg 84%
    09:00 +28°C° 0 mm 2 mps 727 mmHg 79%
    10:00 +29°C° 0 mm 2 mps 727 mmHg 74%
    11:00 +30°C° 0 mm 2 mps 727 mmHg 68%
    12:00 +32°C° 0 mm 2 mps 726 mmHg 62%
    13:00 +34°C° 0 mm 2 mps 726 mmHg 56%
    14:00 +34°C° 0 mm 2 mps 725 mmHg 55%
    15:00 +33°C° 0 mm 1 mps 725 mmHg 55%
    16:00 +33°C° 0 mm 1 mps 724 mmHg 55%
    17:00 +31°C° 0 mm 1 mps 724 mmHg 61%
    18:00 +30°C° 0 mm 1 mps 725 mmHg 67%
    19:00 +28°C° 0 mm 1 mps 725 mmHg 73%
    20:00 +28°C° 0.1 mm 2 mps 725 mmHg 77%
    21:00 +27°C° 0.1 mm 2 mps 726 mmHg 81%
    22:00 +26°C° 0.1 mm 2 mps 726 mmHg 85%
    23:00 +26°C° 0.5 mm 1 mps 726 mmHg 87%

    29 June, Saturday

    Time Temperature Precipitation Wind Pressure Humidity
    00:00 +25°C° 0.5 mm 1 mps 726 mmHg 89%
    01:00 +25°C° 0.5 mm 1 mps 726 mmHg 90%
    02:00 +25°C° 0 mm 1 mps 726 mmHg 91%
    03:00 +25°C° 0 mm 1 mps 726 mmHg 91%
    04:00 +24°C° 0 mm 1 mps 726 mmHg 91%
    05:00 +25°C° 0.1 mm 1 mps 726 mmHg 90%
    06:00 +25°C° 0.1 mm 1 mps 726 mmHg 88%
    07:00 +25°C° 0.1 mm 1 mps 727 mmHg 87%
    08:00 +27°C° 0 mm 1 mps 727 mmHg 79%
    09:00 +29°C° 0 mm 1 mps 727 mmHg 71%
    10:00 +31°C° 0 mm 2 mps 728 mmHg 63%
    11:00 +32°C° 0 mm 2 mps 727 mmHg 59%
    12:00 +34°C° 0 mm 2 mps 726 mmHg 54%
    13:00 +35°C° 0 mm 2 mps 726 mmHg 50%
    14:00 +35°C° 0 mm 2 mps 725 mmHg 50%
    15:00 +35°C° 0 mm 2 mps 724 mmHg 51%
    16:00 +35°C° 0 mm 2 mps 724 mmHg 51%
    17:00 +33°C° 0 mm 1 mps 724 mmHg 56%
    18:00 +31°C° 0 mm 1 mps 724 mmHg 61%
    19:00 +29°C° 0 mm 1 mps 724 mmHg 67%
    20:00 +29°C° 0.2 mm 1 mps 725 mmHg 71%
    21:00 +28°C° 0.2 mm 1 mps 725 mmHg 75%
    22:00 +27°C° 0.2 mm 1 mps 726 mmHg 79%
    23:00 +27°C° 0.5 mm 1 mps 726 mmHg 82%

    30 June, Sunday

    Time Temperature Precipitation Wind Pressure Humidity
    00:00 +27°C° 0.5 mm 1 mps 726 mmHg 85%
    01:00 +26°C° 0.5 mm 1 mps 726 mmHg 88%
    02:00 +26°C° 2.1 mm 1 mps 726 mmHg 90%
    03:00 +25°C° 2.1 mm 2 mps 726 mmHg 92%
    04:00 +25°C° 2.1 mm 2 mps 726 mmHg 94%
    05:00 +25°C° 0 mm 2 mps 726 mmHg 93%
    06:00 +26°C° 0 mm 2 mps 726 mmHg 92%
    07:00 +26°C° 0 mm 2 mps 727 mmHg 91%
    08:00 +28°C° 0 mm 2 mps 727 mmHg 83%
    09:00 +29°C° 0 mm 2 mps 727 mmHg 76%
    10:00 +31°C° 0 mm 2 mps 727 mmHg 68%
    11:00 +32°C° 0 mm 2 mps 726 mmHg 62%
    12:00 +35°C° 0 mm 2 mps 726 mmHg 56%
    13:00 +36°C° 0 mm 2 mps 725 mmHg 50%
    14:00 +35°C° 0 mm 1 mps 725 mmHg 49%
    15:00 +35°C° 0 mm 1 mps 724 mmHg 49%
    16:00 +35°C° 0 mm 1 mps 724 mmHg 49%
    17:00 +33°C° 0 mm 1 mps 724 mmHg 55%
    18:00 +31°C° 0 mm 1 mps 724 mmHg 61%
    19:00 +30°C° 0 mm 1 mps 724 mmHg 67%
    20:00 +29°C° 1.2 mm 1 mps 725 mmHg 73%
    21:00 +28°C° 1.2 mm 1 mps 725 mmHg 79%
    22:00 +27°C° 1.2 mm 1 mps 726 mmHg 86%
    23:00 +26°C° 1.9 mm 2 mps 726 mmHg 86%

    1 July, Monday

    Time Temperature Precipitation Wind Pressure Humidity
    00:00 +25°C° 1.9 mm 2 mps 725 mmHg 87%
    01:00 +24°C° 1.9 mm 2 mps 725 mmHg 87%
    02:00 +24°C° 0.2 mm 2 mps 725 mmHg 87%
    03:00 +24°C° 0.2 mm 3 mps 725 mmHg 88%
    04:00 +24°C° 0.2 mm 3 mps 725 mmHg 88%
    05:00 +24°C° 0 mm 3 mps 725 mmHg 87%
    06:00 +24°C° 0 mm 3 mps 726 mmHg 86%
    07:00 +25°C° 0 mm 3 mps 726 mmHg 85%
    08:00 +25°C° 0.2 mm 3 mps 727 mmHg 87%
    09:00 +25°C° 0.2 mm 3 mps 727 mmHg 88%
    10:00 +24°C° 0.2 mm 3 mps 728 mmHg 90%
    11:00 +25°C° 0.2 mm 3 mps 727 mmHg 87%
    12:00 +26°C° 0.2 mm 4 mps 726 mmHg 84%
    13:00 +27°C° 0.2 mm 4 mps 725 mmHg 81%
    14:00 +27°C° 0 mm 4 mps 724 mmHg 78%
    15:00 +28°C° 0 mm 3 mps 724 mmHg 75%
    16:00 +29°C° 0 mm 3 mps 723 mmHg 72%
    17:00 +28°C° 0 mm 2 mps 723 mmHg 76%
    18:00 +27°C° 0 mm 2 mps 724 mmHg 80%
    19:00 +26°C° 0 mm 1 mps 724 mmHg 84%
    20:00 +26°C° 0 mm 1 mps 724 mmHg 87%
    21:00 +25°C° 0 mm 1 mps 725 mmHg 89%
    22:00 +23°C° 0 mm 0 mps 725 mmHg 92%
    23:00 +22°C° 0 mm 0 mps 725 mmHg 93%
    Show more